This demonstration page uses our WeatherBlox Daily Observations layout. Learn more.

Left ArrowRight Arrow

Hourly Observations for July 18, 2017

Temp ( °F °C ) Dew Point ( °F °C ) Humidity (%) Winds ( mph kmh ) Pressure ( in mb ) Visibility ( mi km ) Precip ( " mm )
12:15 am 00:15 Cloudy with Nearby Thunderstorms 68 20 65 18.5 91 91 Calm 29.88 1012 4 6 0.12 3.05
12:35 am 00:35 Cloudy 68 20 66 18.7 92 92 ENE 3 6 29.91 1013 10 16 0.12 3.05
12:55 am 00:55 Cloudy 68 20 65 18.6 92 92 E 5 7 29.88 1012 10 16 0.12 3.05
1:15 am 01:15 Cloudy 68 20 66 18.7 92 92 Calm 29.88 1012 10 16 0.00 0.00
1:35 am 01:35 Mostly Cloudy 67 19.7 66 18.7 94 94 Calm 29.88 1012 10 16 0.00 0.00
1:55 am 01:55 Mostly Cloudy 68 19.8 66 18.8 94 94 N 5 7 29.88 1012 10 16 0.00 0.00
2:15 am 02:15 Mostly Cloudy 68 19.9 66 19 95 95 Calm 29.88 1012 10 16 0.00 0.00
2:35 am 02:35 Partly Cloudy 67 19.7 66 18.7 94 94 Calm 29.88 1012 10 16 0.00 0.00
2:55 am 02:55 Partly Cloudy with Nearby Thunderstorms 67 19.5 65 18.6 95 95 NE 5 7 29.91 1013 10 16 0.00 0.00
3:15 am 03:15 Clear 67 19.7 66 18.8 95 95 SE 5 7 29.85 1011 10 16 0.00 0.00
3:35 am 03:35 Mostly Cloudy 68 20 65 18.5 91 91 NE 7 11 29.88 1012 10 16 0.00 0.00
3:55 am 03:55 Partly Cloudy 68 20 65 18.6 92 92 ENE 5 7 29.88 1012 10 16 0.00 0.00
4:15 am 04:15 Partly Cloudy 68 20.1 65 18.3 89 89 ESE 7 11 29.88 1012 10 16 0.00 0.00
4:35 am 04:35 Clear 69 20.4 65 18.3 88 88 ESE 7 11 29.88 1012 10 16 0.00 0.00
4:55 am 04:55 Clear 69 20.5 65 18.1 86 86 ESE 10 17 29.88 1012 10 16 0.00 0.00
5:15 am 05:15 Clear 69 20.5 65 18.2 87 87 E 13 20 29.88 1012 10 16 0.01 0.25
5:35 am 05:35 Clear 68 20 65 18.5 91 91 ESE 7 11 29.88 1012 10 16 0.01 0.25
5:55 am 05:55 Clear 68 20 65 18.5 91 91 E 9 15 29.91 1013 10 16 0.01 0.25
6:15 am 06:15 Clear 67 19.7 65 18.3 92 92 E 8 13 29.94 1014 10 16 0.00 0.00
6:35 am 06:35 Sunny 67 19.7 65 18.4 92 92 ESE 8 13 29.94 1014 10 16 0.00 0.00
6:55 am 06:55 Sunny 68 19.8 65 18.5 92 92 ESE 10 17 29.94 1014 10 16 0.00 0.00
7:15 am 07:15 Sunny 68 20 65 18.5 91 91 ESE 12 19 29.91 1013 10 16 0.00 0.00
7:35 am 07:35 Sunny 69 20.5 66 18.7 89 89 ESE 9 15 29.91 1013 10 16 0.00 0.00
7:55 am 07:55 Sunny 70 21 65 18.6 86 86 SE 10 17 29.91 1013 10 16 0.00 0.00
8:15 am 08:15 Sunny 71 21.7 65 18.6 83 83 SSE 12 19 29.91 1013 10 16 0.00 0.00
8:35 am 08:35 Sunny 73 22.5 65 18.5 78 78 SE 12 19 29.91 1013 10 16 0.00 0.00
8:55 am 08:55 Sunny 74 23.2 65 18.6 75 75 SE 14 22 29.91 1013 10 16 0.00 0.00
9:15 am 09:15 Sunny 75 23.7 66 18.8 74 74 SE 13 20 29.88 1012 10 16 0.00 0.00
9:35 am 09:35 Sunny 76 24.4 67 19.6 75 75 SE 16 26 29.88 1012 10 16 0.00 0.00
9:55 am 09:55 Sunny 77 25 68 20.1 74 74 SE 15 24 29.88 1012 10 16 0.00 0.00
10:15 am 10:15 Sunny 77 25.1 69 20.3 75 75 SE 14 22 29.88 1012 10 16 0.00 0.00
10:35 am 10:35 Partly Cloudy 78 25.8 69 20.7 74 74 SE 14 22 29.88 1012 10 16 0.00 0.00
10:55 am 10:55 Partly Cloudy 80 26.5 70 21 72 72 SSE 13 20 29.88 1012 10 16 0.00 0.00
11:15 am 11:15 Partly Cloudy 78 25.7 69 20.8 74 74 SSE 13 20 29.88 1012 10 16 0.00 0.00
11:35 am 11:35 Partly Cloudy 80 26.5 69 20.8 71 71 S 10 17 29.88 1012 10 16 0.00 0.00
11:55 am 11:55 Partly Cloudy 81 27 70 21.3 71 71 SE 9 15 29.85 1011 10 16 0.00 0.00
12:15 pm 12:15 Sunny 82 27.5 71 21.4 69 69 SE 8 13 29.85 1011 10 16 0.00 0.00
12:35 pm 12:35 Sunny 82 27.8 70 21.3 68 68 SSE 7 11 29.85 1011 10 16 0.00 0.00
12:55 pm 12:55 Sunny 83 28.3 71 21.6 67 67 SE 5 7 29.85 1011 10 16 0.00 0.00
1:15 pm 13:15 Mostly Cloudy 83 28.6 71 21.7 66 66 S 5 7 29.85 1011 10 16 0.00 0.00
1:35 pm 13:35 Mostly Cloudy 84 28.8 71 21.9 66 66 Calm 29.88 1012 10 16 0.00 0.00
1:55 pm 13:55 Mostly Cloudy 84 28.7 71 21.6 66 66 Calm 29.88 1012 10 16 0.00 0.00
2:15 pm 14:15 Cloudy 83 28.2 72 22.4 71 71 NW 3 6 29.88 1012 10 16 0.00 0.00
2:35 pm 14:35 Mostly Cloudy 84 28.7 73 22.6 70 70 NNE 5 7 29.88 1012 10 16 0.00 0.00
2:55 pm 14:55 Partly Cloudy 85 29.3 71 21.6 63 63 E 7 11 29.88 1012 10 16 0.00 0.00
3:15 pm 15:15 Sunny 85 29.5 72 22 64 64 E 9 15 29.88 1012 10 16 0.00 0.00
3:35 pm 15:35 Sunny 85 29.7 72 22.3 64 64 ESE 9 15 29.88 1012 10 16 0.00 0.00
3:55 pm 15:55 Sunny 86 30 73 22.6 65 65 E 8 13 29.85 1011 10 16 0.00 0.00
4:15 pm 16:15 Partly Cloudy 86 29.9 73 22.9 66 66 SE 8 13 29.85 1011 10 16 0.00 0.00
4:35 pm 16:35 Sunny 87 30.3 72 22.2 62 62 E 10 17 29.85 1011 10 16 0.00 0.00
4:55 pm 16:55 Sunny 86 30.1 73 22.5 64 64 ESE 8 13 29.85 1011 10 16 0.00 0.00
5:15 pm 17:15 Sunny 86 30 73 22.5 64 64 E 10 17 29.85 1011 10 16 0.00 0.00
5:35 pm 17:35 Sunny 86 29.9 73 22.8 66 66 E 10 17 29.88 1012 10 16 0.00 0.00
5:55 pm 17:55 Sunny 86 30.1 72 22.4 63 63 E 8 13 29.88 1012 10 16 0.00 0.00
6:15 pm 18:15 Sunny 86 29.8 72 22.4 65 65 E 8 13 29.85 1011 10 16 0.00 0.00
6:35 pm 18:35 Sunny 85 29.7 73 22.5 65 65 E 8 13 29.85 1011 10 16 0.00 0.00
6:55 pm 18:55 Sunny 85 29.6 73 22.6 66 66 E 9 15 29.85 1011 10 16 0.00 0.00
7:15 pm 19:15 Sunny 84 29.1 72 22.4 67 67 E 7 11 29.85 1011 10 16 0.00 0.00
7:35 pm 19:35 Sunny 83 28.3 73 22.6 71 71 E 7 11 29.85 1011 10 16 0.00 0.00
7:55 pm 19:55 Sunny 83 28.1 72 22.4 71 71 E 7 11 29.85 1011 10 16 0.00 0.00
8:15 pm 20:15 Sunny 82 28 72 22.3 71 71 E 8 13 29.85 1011 10 16 0.00 0.00
8:35 pm 20:35 Sunny 81 27.2 73 22.6 76 76 E 7 11 29.91 1013 10 16 0.00 0.00
8:55 pm 20:55 Sunny 80 26.6 73 22.7 79 79 E 7 11 29.91 1013 10 16 0.00 0.00
9:15 pm 21:15 Clear 80 26.5 73 22.8 80 80 E 6 9 29.91 1013 10 16 0.00 0.00
9:35 pm 21:35 Clear 80 26.5 73 22.8 80 80 ENE 6 9 29.91 1013 10 16 0.00 0.00
9:55 pm 21:55 Clear 79 25.9 73 23 84 84 ENE 6 9 29.91 1013 10 16 0.00 0.00
10:15 pm 22:15 Clear 78 25.5 73 23 86 86 E 3 6 29.91 1013 10 16 0.00 0.00
10:35 pm 22:35 Clear 77 25.2 73 22.8 87 87 ENE 5 7 29.91 1013 7 11 0.00 0.00
10:55 pm 22:55 Clear 77 25 73 23 89 89 ENE 5 7 29.91 1013 7 11 0.00 0.00
11:15 pm 23:15 Clear 77 24.9 73 22.9 89 89 ENE 3 6 29.91 1013 7 11 0.00 0.00
11:35 pm 23:35 Clear with Mist and Fog 76 24.5 73 22.7 90 90 NNE 3 6 29.91 1013 5 8 0.00 0.00
11:55 pm 23:55 Clear with Mist and Fog 76 24.3 73 22.7 91 91 NNW 3 6 29.91 1013 5 8 0.00 0.00

Powered by AerisWeather